Year,Month,Day,Hour,Minute,Value (Times are PST for temperature in C)
2018,08,06,00,00,17.90
2018,08,06,00,01,17.90
2018,08,06,00,02,17.90
2018,08,06,00,03,17.90
2018,08,06,00,04,17.90
2018,08,06,00,05,17.90
2018,08,06,00,06,17.90
2018,08,06,00,07,17.90
2018,08,06,00,08,17.90
2018,08,06,00,09,17.90
2018,08,06,00,10,17.90
2018,08,06,00,11,17.90
2018,08,06,00,12,17.90
2018,08,06,00,13,17.90
2018,08,06,00,14,17.90
2018,08,06,00,15,18.00
2018,08,06,00,16,18.10
2018,08,06,00,17,18.10
2018,08,06,00,18,18.10
2018,08,06,00,19,18.10
2018,08,06,00,20,18.10
2018,08,06,00,21,18.10
2018,08,06,00,22,18.10
2018,08,06,00,23,18.10
2018,08,06,00,24,18.10
2018,08,06,00,25,18.10
2018,08,06,00,26,18.10
2018,08,06,00,27,18.10
2018,08,06,00,28,18.10
2018,08,06,00,29,18.10
2018,08,06,00,30,18.10
2018,08,06,00,31,18.20
2018,08,06,00,32,18.20
2018,08,06,00,33,18.20
2018,08,06,00,34,18.20
2018,08,06,00,35,18.20
2018,08,06,00,36,18.20
2018,08,06,00,37,18.20
2018,08,06,00,38,18.20
2018,08,06,00,39,18.10
2018,08,06,00,40,18.10
2018,08,06,00,41,18.10
2018,08,06,00,42,18.10
2018,08,06,00,43,18.10
2018,08,06,00,44,18.10
2018,08,06,00,45,18.10
2018,08,06,00,46,18.10
2018,08,06,00,47,18.10
2018,08,06,00,48,18.10
2018,08,06,00,49,18.10
2018,08,06,00,50,18.10
2018,08,06,00,51,18.10
2018,08,06,00,52,18.10
2018,08,06,00,53,18.10
2018,08,06,00,54,18.20
2018,08,06,00,55,18.20
2018,08,06,00,56,18.20
2018,08,06,00,57,18.20
2018,08,06,00,58,18.20
2018,08,06,00,59,18.20
2018,08,06,01,00,18.20
2018,08,06,01,01,18.20
2018,08,06,01,02,18.10
2018,08,06,01,03,18.10
2018,08,06,01,04,18.10
2018,08,06,01,05,18.10
2018,08,06,01,06,18.10
2018,08,06,01,07,18.10
2018,08,06,01,08,18.10
2018,08,06,01,09,18.10
2018,08,06,01,10,18.10
2018,08,06,01,11,18.00
2018,08,06,01,12,17.90
2018,08,06,01,13,17.90
2018,08,06,01,14,17.90
2018,08,06,01,15,17.90
2018,08,06,01,16,17.90
2018,08,06,01,17,17.90
2018,08,06,01,18,17.80
2018,08,06,01,19,17.80
2018,08,06,01,20,17.80
2018,08,06,01,21,17.70
2018,08,06,01,22,17.70
2018,08,06,01,23,17.70
2018,08,06,01,24,17.70
2018,08,06,01,25,17.60
2018,08,06,01,26,17.60
2018,08,06,01,27,17.60
2018,08,06,01,28,17.60
2018,08,06,01,29,17.60
2018,08,06,01,30,17.60
2018,08,06,01,31,17.60
2018,08,06,01,32,17.70
2018,08,06,01,33,17.70
2018,08,06,01,34,17.80
2018,08,06,01,35,17.80
2018,08,06,01,36,17.80
2018,08,06,01,37,17.80
2018,08,06,01,38,17.80
2018,08,06,01,39,17.80
2018,08,06,01,40,17.80
2018,08,06,01,41,17.70
2018,08,06,01,42,17.70
2018,08,06,01,43,17.70
2018,08,06,01,44,17.60
2018,08,06,01,45,17.60
2018,08,06,01,46,17.50
2018,08,06,01,47,17.40
2018,08,06,01,48,17.40
2018,08,06,01,49,17.30
2018,08,06,01,50,17.30
2018,08,06,01,51,17.20
2018,08,06,01,52,17.20
2018,08,06,01,53,17.10
2018,08,06,01,54,17.10
2018,08,06,01,55,17.00
2018,08,06,01,56,17.00
2018,08,06,01,57,16.90
2018,08,06,01,58,16.90
2018,08,06,01,59,16.90
2018,08,06,02,00,16.90
2018,08,06,02,01,16.80
2018,08,06,02,02,16.80
2018,08,06,02,03,16.80
2018,08,06,02,04,16.80
2018,08,06,02,05,16.70
2018,08,06,02,06,16.70
2018,08,06,02,07,16.70
2018,08,06,02,08,16.70
2018,08,06,02,09,16.70
2018,08,06,02,10,16.70
2018,08,06,02,11,16.70
2018,08,06,02,12,16.70
2018,08,06,02,13,16.70
2018,08,06,02,14,16.70
2018,08,06,02,15,16.70
2018,08,06,02,16,16.70
2018,08,06,02,17,16.70
2018,08,06,02,18,16.60
2018,08,06,02,19,16.60
2018,08,06,02,20,16.60
2018,08,06,02,21,16.60
2018,08,06,02,22,16.50
2018,08,06,02,23,16.40
2018,08,06,02,24,16.40
2018,08,06,02,25,16.40
2018,08,06,02,26,16.40
2018,08,06,02,27,16.40
2018,08,06,02,28,16.40
2018,08,06,02,29,16.30
2018,08,06,02,30,16.30
2018,08,06,02,31,16.30
2018,08,06,02,32,16.30
2018,08,06,02,33,16.30
2018,08,06,02,34,16.20
2018,08,06,02,35,16.20
2018,08,06,02,36,16.20
2018,08,06,02,37,16.20
2018,08,06,02,38,16.20
2018,08,06,02,39,16.20
2018,08,06,02,40,16.10
2018,08,06,02,41,16.10
2018,08,06,02,42,16.10
2018,08,06,02,43,16.10
2018,08,06,02,44,16.10
2018,08,06,02,45,16.10
2018,08,06,02,46,16.10
2018,08,06,02,47,16.10
2018,08,06,02,48,16.10
2018,08,06,02,49,16.20
2018,08,06,02,50,16.20
2018,08,06,02,51,16.20
2018,08,06,02,52,16.20
2018,08,06,02,53,16.20
2018,08,06,02,54,16.20
2018,08,06,02,55,16.20
2018,08,06,02,56,16.20
2018,08,06,02,57,16.20
2018,08,06,02,58,16.20
2018,08,06,02,59,16.20
2018,08,06,03,00,16.20
2018,08,06,03,01,16.20
2018,08,06,03,02,16.10
2018,08,06,03,03,16.10
2018,08,06,03,04,16.10
2018,08,06,03,05,16.10
2018,08,06,03,06,16.10
2018,08,06,03,07,16.10
2018,08,06,03,08,16.10
2018,08,06,03,09,16.10
2018,08,06,03,10,16.10
2018,08,06,03,11,16.10
2018,08,06,03,12,16.10
2018,08,06,03,13,16.10
2018,08,06,03,14,16.10
2018,08,06,03,15,16.10
2018,08,06,03,16,16.10
2018,08,06,03,17,16.10
2018,08,06,03,18,16.00
2018,08,06,03,19,15.90
2018,08,06,03,20,15.90
2018,08,06,03,21,15.90
2018,08,06,03,22,15.90
2018,08,06,03,23,15.90
2018,08,06,03,24,15.90
2018,08,06,03,25,15.90
2018,08,06,03,26,15.80
2018,08,06,03,27,15.80
2018,08,06,03,28,15.80
2018,08,06,03,29,15.80
2018,08,06,03,30,15.80
2018,08,06,03,31,15.80
2018,08,06,03,32,15.80
2018,08,06,03,33,15.80
2018,08,06,03,34,15.80
2018,08,06,03,35,15.80
2018,08,06,03,36,15.80
2018,08,06,03,37,15.80
2018,08,06,03,38,15.80
2018,08,06,03,39,15.80
2018,08,06,03,40,15.80
2018,08,06,03,41,15.80
2018,08,06,03,42,15.80
2018,08,06,03,43,15.80
2018,08,06,03,44,15.80
2018,08,06,03,45,15.80
2018,08,06,03,46,15.80
2018,08,06,03,47,15.80
2018,08,06,03,48,15.80
2018,08,06,03,49,15.80
2018,08,06,03,50,15.80
2018,08,06,03,51,15.80
2018,08,06,03,52,15.80
2018,08,06,03,53,15.80
2018,08,06,03,54,15.80
2018,08,06,03,55,15.80
2018,08,06,03,56,15.80
2018,08,06,03,57,15.80
2018,08,06,03,58,15.80
2018,08,06,03,59,15.80
2018,08,06,04,00,15.80
2018,08,06,04,01,15.80
2018,08,06,04,02,15.90
2018,08,06,04,03,15.90
2018,08,06,04,04,15.90
2018,08,06,04,05,15.90
2018,08,06,04,06,16.00
2018,08,06,04,07,16.10
2018,08,06,04,08,16.10
2018,08,06,04,09,16.10
2018,08,06,04,10,16.10
2018,08,06,04,11,16.10
2018,08,06,04,12,16.10
2018,08,06,04,13,16.10
2018,08,06,04,14,16.20
2018,08,06,04,15,16.20
2018,08,06,04,16,16.20
2018,08,06,04,17,16.20
2018,08,06,04,18,16.20
2018,08,06,04,19,16.10
2018,08,06,04,20,16.10
2018,08,06,04,21,16.10
2018,08,06,04,22,16.10
2018,08,06,04,23,16.10
2018,08,06,04,24,16.10
2018,08,06,04,25,16.10
2018,08,06,04,26,16.10
2018,08,06,04,27,16.10
2018,08,06,04,28,16.10
2018,08,06,04,29,16.10
2018,08,06,04,30,16.10
2018,08,06,04,31,16.10
2018,08,06,04,32,16.10
2018,08,06,04,33,16.10
2018,08,06,04,34,16.00
2018,08,06,04,35,15.90
2018,08,06,04,36,15.90
2018,08,06,04,37,15.90
2018,08,06,04,38,15.90
2018,08,06,04,39,15.90
2018,08,06,04,40,15.90
2018,08,06,04,41,15.90
2018,08,06,04,42,15.90
2018,08,06,04,43,15.90
2018,08,06,04,44,15.90
2018,08,06,04,45,15.90
2018,08,06,04,46,15.90
2018,08,06,04,47,15.90
2018,08,06,04,48,15.90
2018,08,06,04,49,15.90
2018,08,06,04,50,15.90
2018,08,06,04,51,15.80
2018,08,06,04,52,15.80
2018,08,06,04,53,15.80
2018,08,06,04,54,15.80
2018,08,06,04,55,15.80
2018,08,06,04,56,15.80
2018,08,06,04,57,15.80
2018,08,06,04,58,15.80
2018,08,06,04,59,15.80
2018,08,06,05,00,15.80
2018,08,06,05,01,15.80
2018,08,06,05,02,15.80
2018,08,06,05,03,15.80
2018,08,06,05,04,15.80
2018,08,06,05,05,15.80
2018,08,06,05,06,15.70
2018,08,06,05,07,15.70
2018,08,06,05,08,15.70
2018,08,06,05,09,15.70
2018,08,06,05,10,15.70
2018,08,06,05,11,15.60
2018,08,06,05,12,15.60
2018,08,06,05,13,15.60
2018,08,06,05,14,15.60
2018,08,06,05,15,15.60
2018,08,06,05,16,15.60
2018,08,06,05,17,15.50
2018,08,06,05,18,15.50
2018,08,06,05,19,15.50
2018,08,06,05,20,15.50
2018,08,06,05,21,15.50
2018,08,06,05,22,15.50
2018,08,06,05,23,15.50
2018,08,06,05,24,15.50
2018,08,06,05,25,15.50
2018,08,06,05,26,15.50
2018,08,06,05,27,15.50
2018,08,06,05,28,15.50
2018,08,06,05,29,15.60
2018,08,06,05,30,15.60
2018,08,06,05,31,15.60
2018,08,06,05,32,15.60
2018,08,06,05,33,15.60
2018,08,06,05,34,15.60
2018,08,06,05,35,15.60
2018,08,06,05,36,15.60
2018,08,06,05,37,15.60
2018,08,06,05,38,15.60
2018,08,06,05,39,15.60
2018,08,06,05,40,15.60
2018,08,06,05,41,15.50
2018,08,06,05,42,15.50
2018,08,06,05,43,15.50
2018,08,06,05,44,15.50
2018,08,06,05,45,15.50
2018,08,06,05,46,15.60
2018,08,06,05,47,15.60
2018,08,06,05,48,15.60
2018,08,06,05,49,15.60
2018,08,06,05,50,15.60
2018,08,06,05,51,15.70
2018,08,06,05,52,15.70
2018,08,06,05,53,15.70
2018,08,06,05,54,15.60
2018,08,06,05,55,15.60
2018,08,06,05,56,15.60
2018,08,06,05,57,15.60
2018,08,06,05,58,15.60
2018,08,06,05,59,15.60
2018,08,06,06,00,15.60
2018,08,06,06,01,15.50
2018,08,06,06,02,15.50
2018,08,06,06,03,15.50
2018,08,06,06,04,15.50
2018,08,06,06,05,15.50
2018,08,06,06,06,15.50
2018,08,06,06,07,15.50
2018,08,06,06,08,15.50
2018,08,06,06,09,15.60
2018,08,06,06,10,15.60
2018,08,06,06,11,15.60
2018,08,06,06,12,15.60
2018,08,06,06,13,15.70
2018,08,06,06,14,15.70
2018,08,06,06,15,15.80
2018,08,06,06,16,15.80
2018,08,06,06,17,15.80
2018,08,06,06,18,15.80
2018,08,06,06,19,15.70
2018,08,06,06,20,15.70
2018,08,06,06,21,15.60
2018,08,06,06,22,15.60
2018,08,06,06,23,15.50
2018,08,06,06,24,15.50
2018,08,06,06,25,15.40
2018,08,06,06,26,15.40
2018,08,06,06,27,15.30
2018,08,06,06,28,15.30
2018,08,06,06,29,15.30
2018,08,06,06,30,15.20
2018,08,06,06,31,15.20
2018,08,06,06,32,15.20
2018,08,06,06,33,15.10
2018,08,06,06,34,15.10
2018,08,06,06,35,15.10
2018,08,06,06,36,15.10
2018,08,06,06,37,15.00
2018,08,06,06,38,15.00
2018,08,06,06,39,15.00
2018,08,06,06,40,15.00
2018,08,06,06,41,15.00
2018,08,06,06,42,15.00
2018,08,06,06,43,15.00
2018,08,06,06,44,15.00
2018,08,06,06,45,15.00
2018,08,06,06,46,15.00
2018,08,06,06,47,15.00
2018,08,06,06,48,15.00
2018,08,06,06,49,15.00
2018,08,06,06,50,15.00
2018,08,06,06,51,15.00
2018,08,06,06,52,15.00
2018,08,06,06,53,15.00
2018,08,06,06,54,15.00
2018,08,06,06,55,15.00
2018,08,06,06,56,15.00
2018,08,06,06,57,15.00
2018,08,06,06,58,15.00
2018,08,06,06,59,15.00
2018,08,06,07,00,15.00
2018,08,06,07,01,15.00
2018,08,06,07,02,15.00
2018,08,06,07,03,15.00
2018,08,06,07,04,15.00
2018,08,06,07,05,15.10
2018,08,06,07,06,15.10
2018,08,06,07,07,15.10
2018,08,06,07,08,15.20
2018,08,06,07,09,15.20
2018,08,06,07,10,15.20
2018,08,06,07,11,15.30
2018,08,06,07,12,15.30
2018,08,06,07,13,15.30
2018,08,06,07,14,15.40
2018,08,06,07,15,15.40
2018,08,06,07,16,15.50
2018,08,06,07,17,15.50
2018,08,06,07,18,15.60
2018,08,06,07,19,15.60
2018,08,06,07,20,15.60
2018,08,06,07,21,15.70
2018,08,06,07,22,15.70
2018,08,06,07,23,15.80
2018,08,06,07,24,15.90
2018,08,06,07,25,16.00
2018,08,06,07,26,16.10
2018,08,06,07,27,16.20
2018,08,06,07,28,16.30
2018,08,06,07,29,16.40
2018,08,06,07,30,16.50
2018,08,06,07,31,16.70
2018,08,06,07,32,16.70
2018,08,06,07,33,16.80
2018,08,06,07,34,16.90
2018,08,06,07,35,17.00
2018,08,06,07,36,17.10
2018,08,06,07,37,17.20
2018,08,06,07,38,17.30
2018,08,06,07,39,17.30
2018,08,06,07,40,17.40
2018,08,06,07,41,17.50
2018,08,06,07,42,17.50
2018,08,06,07,43,17.60
2018,08,06,07,44,17.70
2018,08,06,07,45,17.70
2018,08,06,07,46,17.80
2018,08,06,07,47,17.80
2018,08,06,07,48,17.90
2018,08,06,07,49,17.90
2018,08,06,07,50,18.00
2018,08,06,07,51,18.10
2018,08,06,07,52,18.10
2018,08,06,07,53,18.20
2018,08,06,07,54,18.20
2018,08,06,07,55,18.30
2018,08,06,07,56,18.30
2018,08,06,07,57,18.30
2018,08,06,07,58,18.40
2018,08,06,07,59,18.40
2018,08,06,08,00,18.50
2018,08,06,08,01,18.50
2018,08,06,08,02,18.60
2018,08,06,08,03,18.60
2018,08,06,08,04,18.60
2018,08,06,08,05,18.70
2018,08,06,08,06,18.70
2018,08,06,08,07,18.80
2018,08,06,08,08,18.80
2018,08,06,08,09,18.80
2018,08,06,08,10,18.90
2018,08,06,08,11,18.90
2018,08,06,08,12,18.90
2018,08,06,08,13,19.10
2018,08,06,08,14,19.10
2018,08,06,08,15,19.10
2018,08,06,08,16,19.10
2018,08,06,08,17,19.20
2018,08,06,08,18,19.30
2018,08,06,08,19,19.30
2018,08,06,08,20,19.30
2018,08,06,08,21,19.40
2018,08,06,08,22,19.40
2018,08,06,08,23,19.50
2018,08,06,08,24,19.50
2018,08,06,08,25,19.50
2018,08,06,08,26,19.60
2018,08,06,08,27,19.60
2018,08,06,08,28,19.70
2018,08,06,08,29,19.70
2018,08,06,08,30,19.80
2018,08,06,08,31,19.80
2018,08,06,08,32,19.80
2018,08,06,08,33,19.90
2018,08,06,08,34,19.90
2018,08,06,08,35,19.90
2018,08,06,08,36,20.00
2018,08,06,08,37,20.20
2018,08,06,08,38,20.20
2018,08,06,08,39,20.30
2018,08,06,08,40,20.50
2018,08,06,08,41,20.60
2018,08,06,08,42,20.70
2018,08,06,08,43,20.80
2018,08,06,08,44,21.00
2018,08,06,08,45,21.10
2018,08,06,08,46,21.30
2018,08,06,08,47,21.40
2018,08,06,08,48,21.60
2018,08,06,08,49,21.60
2018,08,06,08,50,21.70
2018,08,06,08,51,21.80
2018,08,06,08,52,21.90
2018,08,06,08,53,22.00
2018,08,06,08,54,22.00
2018,08,06,08,55,22.20
2018,08,06,08,56,22.20
2018,08,06,08,57,22.30
2018,08,06,08,58,22.40
2018,08,06,08,59,22.40
2018,08,06,09,00,22.50
2018,08,06,09,01,22.60
2018,08,06,09,02,22.70
2018,08,06,09,03,22.70
2018,08,06,09,04,22.80
2018,08,06,09,05,22.90
2018,08,06,09,06,22.90
2018,08,06,09,07,22.90
2018,08,06,09,08,23.00
2018,08,06,09,09,23.10
2018,08,06,09,10,23.20
2018,08,06,09,11,23.20
2018,08,06,09,12,23.30
2018,08,06,09,13,23.30
2018,08,06,09,14,23.30
2018,08,06,09,15,23.40
2018,08,06,09,16,23.40
2018,08,06,09,17,23.50
2018,08,06,09,18,23.60
2018,08,06,09,19,23.60
2018,08,06,09,20,23.60
2018,08,06,09,21,23.60
2018,08,06,09,22,23.60
2018,08,06,09,23,23.70
2018,08,06,09,24,23.70
2018,08,06,09,25,23.70
2018,08,06,09,26,23.70
2018,08,06,09,27,23.80
2018,08,06,09,28,23.80
2018,08,06,09,29,23.90
2018,08,06,09,30,23.90
2018,08,06,09,31,23.90
2018,08,06,09,32,24.00
2018,08,06,09,33,23.90
2018,08,06,09,34,24.00
2018,08,06,09,35,24.10
2018,08,06,09,36,24.10
2018,08,06,09,37,24.10
2018,08,06,09,38,24.10
2018,08,06,09,39,24.10
2018,08,06,09,40,24.10
2018,08,06,09,41,24.10
2018,08,06,09,42,24.10
2018,08,06,09,43,24.10
2018,08,06,09,44,24.10
2018,08,06,09,45,24.20
2018,08,06,09,46,24.20
2018,08,06,09,47,24.20
2018,08,06,09,48,24.20
2018,08,06,09,49,24.30
2018,08,06,09,50,24.30
2018,08,06,09,51,24.40
2018,08,06,09,52,24.40
2018,08,06,09,53,24.50
2018,08,06,09,54,24.50
2018,08,06,09,55,24.60
2018,08,06,09,56,24.60
2018,08,06,09,57,24.60
2018,08,06,09,58,24.60
2018,08,06,09,59,24.60
2018,08,06,10,00,24.60
2018,08,06,10,01,24.60
2018,08,06,10,02,24.60
2018,08,06,10,03,24.70
2018,08,06,10,04,24.70
2018,08,06,10,05,24.80
2018,08,06,10,06,24.90
2018,08,06,10,07,24.90
2018,08,06,10,08,25.00
2018,08,06,10,09,25.00
2018,08,06,10,10,25.00
2018,08,06,10,11,25.00
2018,08,06,10,12,25.00
2018,08,06,10,13,25.10
2018,08,06,10,14,25.10
2018,08,06,10,15,25.20
2018,08,06,10,16,25.20
2018,08,06,10,17,25.20
2018,08,06,10,18,25.30
2018,08,06,10,19,25.30
2018,08,06,10,20,25.40
2018,08,06,10,21,25.40
2018,08,06,10,22,25.50
2018,08,06,10,23,25.50
2018,08,06,10,24,25.50
2018,08,06,10,25,25.50
2018,08,06,10,26,25.50
2018,08,06,10,27,25.50
2018,08,06,10,28,25.50
2018,08,06,10,29,25.50
2018,08,06,10,30,25.50
2018,08,06,10,31,25.50
2018,08,06,10,32,25.50
2018,08,06,10,33,25.50
2018,08,06,10,34,25.50
2018,08,06,10,35,25.60
2018,08,06,10,36,25.60
2018,08,06,10,37,25.60
2018,08,06,10,38,25.60
2018,08,06,10,39,25.70
2018,08,06,10,40,25.70
2018,08,06,10,41,25.70
2018,08,06,10,42,25.70
2018,08,06,10,43,25.70
2018,08,06,10,44,25.80
2018,08,06,10,45,25.80
2018,08,06,10,46,25.80
2018,08,06,10,47,25.90
2018,08,06,10,48,25.90
2018,08,06,10,49,26.00
2018,08,06,10,50,26.10
2018,08,06,10,51,26.20
2018,08,06,10,52,26.30
2018,08,06,10,53,26.40
2018,08,06,10,54,26.40
2018,08,06,10,55,26.40
2018,08,06,10,56,26.30
2018,08,06,10,57,26.30
2018,08,06,10,58,26.30
2018,08,06,10,59,26.20
2018,08,06,11,00,26.20
2018,08,06,11,01,26.20
2018,08,06,11,02,26.20
2018,08,06,11,03,26.10
2018,08,06,11,04,26.10
2018,08,06,11,05,26.10
2018,08,06,11,06,26.20
2018,08,06,11,07,26.30
2018,08,06,11,08,26.40
2018,08,06,11,09,26.50
2018,08,06,11,10,26.60
2018,08,06,11,11,26.70
2018,08,06,11,12,26.80
2018,08,06,11,13,26.80
2018,08,06,11,14,26.80
2018,08,06,11,15,26.90
2018,08,06,11,16,26.90
2018,08,06,11,17,26.90
2018,08,06,11,18,26.90
2018,08,06,11,19,27.00
2018,08,06,11,20,27.10
2018,08,06,11,21,27.10
2018,08,06,11,22,27.20
2018,08,06,11,23,27.30
2018,08,06,11,24,27.30
2018,08,06,11,25,27.30
2018,08,06,11,26,27.40
2018,08,06,11,27,27.50
2018,08,06,11,28,27.60
2018,08,06,11,29,27.60
2018,08,06,11,30,27.70
2018,08,06,11,31,27.70
2018,08,06,11,32,27.60
2018,08,06,11,33,27.60
2018,08,06,11,34,27.60
2018,08,06,11,35,27.60
2018,08,06,11,36,27.70
2018,08,06,11,37,27.80
2018,08,06,11,38,27.80
2018,08,06,11,39,27.90
2018,08,06,11,40,27.90
2018,08,06,11,41,27.90
2018,08,06,11,42,27.90
2018,08,06,11,43,27.80
2018,08,06,11,44,27.80
2018,08,06,11,45,27.70
2018,08,06,11,46,27.70
2018,08,06,11,47,27.80
2018,08,06,11,48,27.80
2018,08,06,11,49,27.90
2018,08,06,11,50,28.00
2018,08,06,11,51,28.00
2018,08,06,11,52,28.00
2018,08,06,11,53,28.00
2018,08,06,11,54,28.00
2018,08,06,11,55,28.10
2018,08,06,11,56,28.10
2018,08,06,11,57,28.10
2018,08,06,11,58,28.10
2018,08,06,11,59,28.10
2018,08,06,12,00,28.10
2018,08,06,12,01,28.10
2018,08,06,12,02,28.10
2018,08,06,12,03,28.10
2018,08,06,12,04,28.10
2018,08,06,12,05,28.10
2018,08,06,12,06,28.10
2018,08,06,12,07,28.10
2018,08,06,12,08,28.10
2018,08,06,12,09,28.00
2018,08,06,12,10,28.00
2018,08,06,12,11,27.90
2018,08,06,12,12,27.90
2018,08,06,12,13,27.90
2018,08,06,12,14,27.90
2018,08,06,12,15,27.90
2018,08,06,12,16,27.90
2018,08,06,12,17,27.90
2018,08,06,12,18,27.90
2018,08,06,12,19,28.00
2018,08,06,12,20,28.00
2018,08,06,12,21,28.00
2018,08,06,12,22,28.00
2018,08,06,12,23,28.10
2018,08,06,12,24,28.10
2018,08,06,12,25,28.20
2018,08,06,12,26,28.30
2018,08,06,12,27,28.40
2018,08,06,12,28,28.50
2018,08,06,12,29,28.60
2018,08,06,12,30,28.70
2018,08,06,12,31,28.70
2018,08,06,12,32,28.80
2018,08,06,12,33,28.90
2018,08,06,12,34,28.90
2018,08,06,12,35,28.90
2018,08,06,12,36,28.90
2018,08,06,12,37,28.90
2018,08,06,12,38,28.90
2018,08,06,12,39,28.90
2018,08,06,12,40,28.90
2018,08,06,12,41,28.90
2018,08,06,12,42,28.80
2018,08,06,12,43,28.70
2018,08,06,12,44,28.70
2018,08,06,12,45,28.60
2018,08,06,12,46,28.50
2018,08,06,12,47,28.40
2018,08,06,12,48,28.40
2018,08,06,12,49,28.40
2018,08,06,12,50,28.40
2018,08,06,12,51,28.40
2018,08,06,12,52,28.40
2018,08,06,12,53,28.40
2018,08,06,12,54,28.30
2018,08,06,12,55,28.20
2018,08,06,12,56,28.20
2018,08,06,12,57,28.20
2018,08,06,12,58,28.10
2018,08,06,12,59,27.90
2018,08,06,13,00,27.80
2018,08,06,13,01,27.80
2018,08,06,13,02,27.80
2018,08,06,13,03,27.80
2018,08,06,13,04,27.90
2018,08,06,13,05,27.90
2018,08,06,13,06,27.90
2018,08,06,13,07,27.90
2018,08,06,13,08,28.00
2018,08,06,13,09,28.10
2018,08,06,13,10,28.20
2018,08,06,13,11,28.40
2018,08,06,13,12,28.50
2018,08,06,13,13,28.50
2018,08,06,13,14,28.30
2018,08,06,13,15,28.10
2018,08,06,13,16,28.00
2018,08,06,13,17,28.10
2018,08,06,13,18,28.10
2018,08,06,13,19,28.10
2018,08,06,13,20,28.10
2018,08,06,13,21,28.00
2018,08,06,13,22,28.10
2018,08,06,13,23,28.10
2018,08,06,13,24,28.20
2018,08,06,13,25,28.20
2018,08,06,13,26,28.20
2018,08,06,13,27,28.20
2018,08,06,13,28,28.20
2018,08,06,13,29,28.10
2018,08,06,13,30,28.10
2018,08,06,13,31,28.20
2018,08,06,13,32,28.20
2018,08,06,13,33,28.30
2018,08,06,13,34,28.30
2018,08,06,13,35,28.30
2018,08,06,13,36,28.30
2018,08,06,13,37,28.40
2018,08,06,13,38,28.50
2018,08,06,13,39,28.60
2018,08,06,13,40,28.60
2018,08,06,13,41,28.50
2018,08,06,13,42,28.60
2018,08,06,13,43,28.40
2018,08,06,13,44,28.40
2018,08,06,13,45,28.40
2018,08,06,13,46,28.50
2018,08,06,13,47,28.60
2018,08,06,13,48,28.80
2018,08,06,13,49,28.90
2018,08,06,13,50,28.90
2018,08,06,13,51,29.10
2018,08,06,13,52,29.10
2018,08,06,13,53,29.10
2018,08,06,13,54,29.20
2018,08,06,13,55,29.30
2018,08,06,13,56,29.30
2018,08,06,13,57,29.40
2018,08,06,13,58,29.50
2018,08,06,13,59,29.50
2018,08,06,14,00,29.60
2018,08,06,14,01,29.50
2018,08,06,14,02,29.50
2018,08,06,14,03,29.60
2018,08,06,14,04,29.60
2018,08,06,14,05,29.70
2018,08,06,14,06,29.70
2018,08,06,14,07,29.80
2018,08,06,14,08,29.90
2018,08,06,14,09,30.00
2018,08,06,14,10,30.10
2018,08,06,14,11,30.10
2018,08,06,14,12,30.00
2018,08,06,14,13,29.90
2018,08,06,14,14,29.80
2018,08,06,14,15,29.80
2018,08,06,14,16,29.70
2018,08,06,14,17,29.70
2018,08,06,14,18,29.60
2018,08,06,14,19,29.60
2018,08,06,14,20,29.70
2018,08,06,14,21,29.70
2018,08,06,14,22,29.80
2018,08,06,14,23,29.80
2018,08,06,14,24,29.70
2018,08,06,14,25,29.60
2018,08,06,14,26,29.70
2018,08,06,14,27,29.70
2018,08,06,14,28,29.70
2018,08,06,14,29,29.70
2018,08,06,14,30,29.60
2018,08,06,14,31,29.60
2018,08,06,14,32,29.60
2018,08,06,14,33,29.60
2018,08,06,14,34,29.60
2018,08,06,14,35,29.50
2018,08,06,14,36,29.60
2018,08,06,14,37,29.60
2018,08,06,14,38,29.70
2018,08,06,14,39,29.70
2018,08,06,14,40,29.70
2018,08,06,14,41,29.70
2018,08,06,14,42,29.70
2018,08,06,14,43,29.60
2018,08,06,14,44,29.50
2018,08,06,14,45,29.40
2018,08,06,14,46,29.50
2018,08,06,14,47,29.60
2018,08,06,14,48,29.60
2018,08,06,14,49,29.60
2018,08,06,14,50,29.60
2018,08,06,14,51,29.70
2018,08,06,14,52,29.70
2018,08,06,14,53,29.80
2018,08,06,14,54,29.80
2018,08,06,14,55,29.80
2018,08,06,14,56,29.80
2018,08,06,14,57,29.80
2018,08,06,14,58,29.90
2018,08,06,14,59,29.90
2018,08,06,15,00,29.90
2018,08,06,15,01,30.00
2018,08,06,15,02,30.10
2018,08,06,15,03,30.10
2018,08,06,15,04,30.00
2018,08,06,15,05,30.00
2018,08,06,15,06,29.90
2018,08,06,15,07,30.00
2018,08,06,15,08,29.90
2018,08,06,15,09,29.80
2018,08,06,15,10,29.80
2018,08,06,15,11,29.80
2018,08,06,15,12,29.80
2018,08,06,15,13,29.70
2018,08,06,15,14,29.70
2018,08,06,15,15,29.70
2018,08,06,15,16,29.70
2018,08,06,15,17,29.70
2018,08,06,15,18,29.70
2018,08,06,15,19,29.80
2018,08,06,15,20,29.80
2018,08,06,15,21,29.80
2018,08,06,15,22,29.80
2018,08,06,15,23,29.80
2018,08,06,15,24,29.80
2018,08,06,15,25,29.70
2018,08,06,15,26,29.70
2018,08,06,15,27,29.60
2018,08,06,15,28,29.50
2018,08,06,15,29,29.50
2018,08,06,15,30,29.40
2018,08,06,15,31,29.50
2018,08,06,15,32,29.40
2018,08,06,15,33,29.40
2018,08,06,15,34,29.30
2018,08,06,15,35,29.30
2018,08,06,15,36,29.30
2018,08,06,15,37,29.30
2018,08,06,15,38,29.30
2018,08,06,15,39,29.40
2018,08,06,15,40,29.40
2018,08,06,15,41,29.40
2018,08,06,15,42,29.40
2018,08,06,15,43,29.50
2018,08,06,15,44,29.50
2018,08,06,15,45,29.60
2018,08,06,15,46,29.70
2018,08,06,15,47,29.70
2018,08,06,15,48,29.70
2018,08,06,15,49,29.70
2018,08,06,15,50,29.60
2018,08,06,15,51,29.60
2018,08,06,15,52,29.60
2018,08,06,15,53,29.60
2018,08,06,15,54,29.60
2018,08,06,15,55,29.60
2018,08,06,15,56,29.60
2018,08,06,15,57,29.60
2018,08,06,15,58,29.60
2018,08,06,15,59,29.60
2018,08,06,16,00,29.60
2018,08,06,16,01,29.60
2018,08,06,16,02,29.60
2018,08,06,16,03,29.50
2018,08,06,16,04,29.40
2018,08,06,16,05,29.30
2018,08,06,16,06,29.30
2018,08,06,16,07,29.20
2018,08,06,16,08,29.20
2018,08,06,16,09,29.20
2018,08,06,16,10,29.10
2018,08,06,16,11,29.10
2018,08,06,16,12,29.10
2018,08,06,16,13,29.00
2018,08,06,16,14,28.90
2018,08,06,16,15,28.90
2018,08,06,16,16,28.90
2018,08,06,16,17,28.90
2018,08,06,16,18,28.90
2018,08,06,16,19,28.80
2018,08,06,16,20,28.80
2018,08,06,16,21,28.80
2018,08,06,16,22,28.70
2018,08,06,16,23,28.70
2018,08,06,16,24,28.70
2018,08,06,16,25,28.70
2018,08,06,16,26,28.60
2018,08,06,16,27,28.50
2018,08,06,16,28,28.40
2018,08,06,16,29,28.40
2018,08,06,16,30,28.30
2018,08,06,16,31,28.20
2018,08,06,16,32,28.20
2018,08,06,16,33,28.20
2018,08,06,16,34,28.20
2018,08,06,16,35,28.20
2018,08,06,16,36,28.10
2018,08,06,16,37,28.10
2018,08,06,16,38,28.10
2018,08,06,16,39,28.10
2018,08,06,16,40,28.00
2018,08,06,16,41,28.00
2018,08,06,16,42,28.00
2018,08,06,16,43,28.00
2018,08,06,16,44,28.00
2018,08,06,16,45,28.00
2018,08,06,16,46,27.90
2018,08,06,16,47,27.90
2018,08,06,16,48,28.00
2018,08,06,16,49,28.00
2018,08,06,16,50,27.90
2018,08,06,16,51,27.90
2018,08,06,16,52,28.00
2018,08,06,16,53,28.00
2018,08,06,16,54,28.00
2018,08,06,16,55,28.00
2018,08,06,16,56,28.10
2018,08,06,16,57,28.10
2018,08,06,16,58,28.10
2018,08,06,16,59,28.10
2018,08,06,17,00,28.10
2018,08,06,17,01,28.10
2018,08,06,17,02,28.10
2018,08,06,17,03,28.10
2018,08,06,17,04,28.10
2018,08,06,17,05,28.10
2018,08,06,17,06,28.10
2018,08,06,17,07,28.00
2018,08,06,17,08,28.00
2018,08,06,17,09,28.10
2018,08,06,17,10,28.00
2018,08,06,17,11,28.00
2018,08,06,17,12,28.00
2018,08,06,17,13,28.00
2018,08,06,17,14,28.00
2018,08,06,17,15,28.00
2018,08,06,17,16,28.00
2018,08,06,17,17,28.00
2018,08,06,17,18,27.90
2018,08,06,17,19,27.90